F4ELU-13 Weather Reports


time (UTC)temp
F
wind
direction
speed
knots
gust
knots
rain 1hr
in
rain 24hr
in
rain mn
in
humidity
%
barometer
mb
20260507084503 60 99 0.9 3.5 0.00 0.31 0.00 79 1014.2
20260507083603 59 127 0.9 3.5 0.00 0.31 0.00 78 1014.1
20260507082703 59 97 0.0 3.5 0.00 0.31 0.00 79 1014.2
20260507081803 59 75 0.0 1.7 0.00 0.31 0.00 78 1014.0
20260507080903 58 56 0.0 1.7 0.00 0.31 0.00 82 1014.0
20260507080003 56 0 0.0 0.0 0.00 0.31 0.00 84 1014.2
20260507075403 56 0 0.0 0.0 0.00 0.31 0.00 86 1014.1
20260507074503 57 0 0.0 0.0 0.00 0.31 0.00 84 1014.1
20260507073603 56 0 0.0 0.0 0.00 0.31 0.00 86 1014.1
20260507072703 56 0 0.0 0.0 0.00 0.31 0.00 84 1014.0
20260507071803 56 0 0.0 0.0 0.00 0.31 0.00 87 1014.0
20260507070903 56 0 0.0 0.0 0.00 0.31 0.00 87 1014.1
20260507070005 54 0 0.0 0.0 0.00 0.31 0.00 91 1013.9
20260507065403 54 0 0.0 0.0 0.00 0.31 0.00 92 1013.8
20260507064503 53 104 0.0 1.7 0.00 0.31 0.00 92 1014.0
20260507063603 53 90 0.0 1.7 0.00 0.31 0.00 99 1013.8
20260507062703 51 0 0.0 0.0 0.00 0.31 0.00 99 1013.7
20260507061803 51 0 0.0 0.0 0.00 0.31 0.00 99 1013.9
20260507060903 50 0 0.0 0.0 0.00 0.31 0.00 99 1013.8
20260507060003 49 0 0.0 0.0 0.00 0.31 0.00 99 1013.8
20260507055403 49 0 0.0 0.0 0.00 0.31 0.00 99 1013.7
20260507054503 49 0 0.0 0.0 0.00 0.32 0.00 99 1013.7
20260507053603 49 0 0.0 0.0 0.00 0.32 0.00 99 1013.5
20260507052703 49 0 0.0 0.0 0.00 0.33 0.00 99 1013.4
20260507051803 48 0 0.0 0.0 0.00 0.33 0.00 99 1013.4
20260507050903 48 0 0.0 0.0 0.00 0.34 0.00 99 1013.3
20260507050003 48 0 0.0 0.0 0.00 0.34 0.00 99 1013.3
20260507045403 48 0 0.0 0.0 0.00 0.34 0.00 99 1013.2
20260507044503 48 0 0.0 0.0 0.00 0.35 0.00 99 1013.0
20260507043603 48 0 0.0 0.0 0.00 0.35 0.00 99 1013.0
20260507042703 48 0 0.0 0.0 0.00 0.35 0.00 99 1013.1
20260507041803 48 0 0.0 0.0 0.00 0.35 0.00 99 1013.0
20260507040903 48 0 0.0 0.0 0.00 0.35 0.00 99 1013.0
20260507040003 48 0 0.0 0.0 0.00 0.35 0.00 99 1013.0
20260507035403 48 0 0.0 0.0 0.00 0.35 0.00 99 1013.0
20260507034503 48 0 0.0 0.0 0.00 0.35 0.00 99 1013.1
20260507033603 48 0 0.0 0.0 0.00 0.35 0.00 99 1012.9
20260507032703 48 0 0.0 0.0 0.00 0.35 0.00 99 1012.9
20260507031803 48 0 0.0 0.0 0.00 0.37 0.00 99 1013.0
20260507030903 48 0 0.0 0.0 0.00 0.37 0.00 99 1012.8
20260507030003 48 0 0.0 0.0 0.00 0.37 0.00 99 1012.9
20260507025403 48 0 0.0 0.0 0.00 0.37 0.00 99 1013.0
20260507024503 48 0 0.0 0.0 0.00 0.37 0.00 99 1013.0
20260507023603 48 0 0.0 0.0 0.00 0.37 0.00 99 1012.7
20260507022703 48 0 0.0 0.0 0.00 0.37 0.00 99 1012.8
20260507021803 48 0 0.0 0.0 0.00 0.37 0.00 99 1012.7
20260507020903 48 0 0.0 0.0 0.00 0.37 0.00 99 1012.8
20260507020003 49 0 0.0 0.0 0.00 0.37 0.00 99 1012.7
20260507015403 49 0 0.0 0.0 0.00 0.37 0.00 99 1012.7
20260507014503 49 0 0.0 0.0 0.00 0.37 0.00 99 1012.6
20260507013603 49 0 0.0 0.0 0.00 0.37 0.00 99 1012.6
20260507012703 49 0 0.0 0.0 0.00 0.37 0.00 99 1012.7
20260507011803 49 0 0.0 0.0 0.00 0.37 0.00 99 1012.6
20260507010903 49 0 0.0 0.0 0.00 0.37 0.00 99 1012.6
20260507010003 49 0 0.0 0.0 0.00 0.37 0.00 99 1012.7
20260507005403 49 0 0.0 0.0 0.00 0.37 0.00 99 1012.7
20260507004503 49 0 0.0 0.0 0.00 0.37 0.00 99 1012.6
20260507003603 49 0 0.0 0.0 0.00 0.37 0.00 99 1012.8
20260507002703 49 0 0.0 0.0 0.00 0.37 0.00 99 1012.7
20260507001803 49 0 0.0 0.0 0.00 0.37 0.00 99 1012.5
20260507000903 49 0 0.0 0.0 0.00 0.37 0.00 99 1012.5
20260507000004 49 0 0.0 0.0 0.00 0.37 0.00 99 1012.5
20260506235403 49 0 0.0 0.0 0.00 0.37 0.00 99 1012.6
20260506234503 49 0 0.0 0.0 0.00 0.37 0.00 99 1012.5
20260506233603 49 0 0.0 0.0 0.00 0.37 0.00 99 1012.5
20260506232703 49 0 0.0 0.0 0.00 0.37 0.00 99 1012.6
20260506231803 49 0 0.0 0.0 0.00 0.37 0.00 99 1012.6
20260506230903 49 0 0.0 0.0 0.00 0.37 0.00 99 1012.5
20260506230003 50 0 0.0 0.0 0.00 0.37 0.00 99 1012.5
20260506225403 50 0 0.0 0.0 0.00 0.37 0.37 99 1012.4
20260506224503 50 0 0.0 0.0 0.00 0.37 0.37 99 1012.4
20260506223603 50 0 0.0 0.0 0.00 0.37 0.37 99 1012.4
20260506222703 50 0 0.0 0.0 0.00 0.37 0.37 99 1012.3
20260506221803 50 0 0.0 0.0 0.00 0.37 0.37 99 1012.1
20260506220903 50 0 0.0 0.0 0.00 0.37 0.37 99 1012.1
20260506220003 50 0 0.0 0.0 0.00 0.37 0.37 99 1012.0
20260506215403 50 0 0.0 0.0 0.00 0.37 0.37 99 1012.0
20260506214503 50 0 0.0 0.0 0.00 0.37 0.37 99 1012.0
20260506213603 50 0 0.0 0.0 0.00 0.37 0.37 99 1012.1
20260506212703 50 0 0.0 0.0 0.00 0.37 0.37 99 1012.0
20260506211803 50 0 0.0 0.0 0.00 0.37 0.37 99 1012.1
20260506210903 50 0 0.0 0.0 0.00 0.37 0.37 99 1012.0
20260506210004 50 0 0.0 0.0 0.00 0.37 0.37 99 1012.0
20260506205403 50 0 0.0 0.0 0.00 0.37 0.37 99 1011.9
20260506204503 50 0 0.0 0.0 0.00 0.37 0.37 99 1012.0
20260506203603 50 0 0.0 0.0 0.00 0.37 0.37 99 1011.9
20260506202703 50 0 0.0 0.0 0.00 0.37 0.37 99 1011.8
20260506201803 50 0 0.0 0.0 0.00 0.37 0.37 99 1011.7
20260506200903 51 0 0.0 0.0 0.00 0.37 0.37 99 1011.5
20260506200003 51 0 0.0 0.0 0.00 0.37 0.37 99 1011.4
20260506195403 51 0 0.0 0.0 0.00 0.37 0.37 99 1011.3
20260506194503 51 0 0.0 0.0 0.00 0.37 0.37 99 1011.3
20260506193603 51 0 0.0 0.0 0.00 0.37 0.37 98 1011.2
20260506192703 52 0 0.0 0.0 0.00 0.37 0.37 98 1011.2
20260506191803 52 0 0.0 0.0 0.00 0.37 0.37 97 1011.0
20260506190903 52 0 0.0 0.0 0.00 0.37 0.37 97 1010.9
20260506190003 53 0 0.0 0.0 0.00 0.37 0.37 96 1010.9
20260506185403 53 0 0.0 0.0 0.00 0.37 0.37 95 1011.0
20260506184503 53 0 0.0 0.0 0.00 0.37 0.37 95 1010.6
20260506183603 53 0 0.0 0.0 0.00 0.37 0.37 95 1010.6
20260506182703 53 0 0.0 0.0 0.00 0.37 0.37 94 1010.5
20260506181803 54 0 0.0 0.0 0.00 0.37 0.37 93 1010.3
20260506180903 55 0 0.0 0.0 0.00 0.37 0.37 94 1010.4
20260506180004 55 0 0.0 0.0 0.00 0.37 0.37 94 1010.2
20260506175403 55 0 0.0 0.0 0.00 0.37 0.37 91 1010.1
20260506174503 56 0 0.0 0.0 0.00 0.37 0.37 94 1010.1
20260506173603 55 0 0.0 0.0 0.00 0.37 0.37 95 1010.0
20260506172703 54 0 0.0 0.0 0.00 0.37 0.37 97 1010.0
20260506171803 54 0 0.0 0.0 0.00 0.37 0.37 98 1009.9
20260506170903 54 202 0.0 1.7 0.00 0.37 0.37 98 1009.9
20260506170003 53 0 0.0 0.0 0.00 0.37 0.37 98 1009.8
20260506165403 54 0 0.0 0.0 0.00 0.37 0.37 98 1009.7
20260506164503 53 0 0.0 0.0 0.00 0.37 0.37 98 1009.6
20260506163603 53 0 0.0 0.0 0.00 0.37 0.37 99 1009.8
20260506162703 53 0 0.0 0.0 0.00 0.37 0.37 99 1009.6
20260506161803 53 0 0.0 0.0 0.00 0.37 0.37 99 1009.6
20260506160903 53 0 0.0 0.0 0.01 0.37 0.37 99 1009.6
20260506160003 52 0 0.0 0.0 0.01 0.37 0.37 99 1009.6
20260506155403 52 0 0.0 0.0 0.13 0.37 0.37 99 1009.6
20260506154503 52 0 0.0 0.0 0.28 0.37 0.37 99 1009.7
20260506153603 51 0 0.0 0.0 0.31 0.37 0.37 99 1009.9
20260506152703 51 0 0.0 0.0 0.31 0.37 0.37 99 1009.5
20260506151803 51 90 0.0 1.7 0.31 0.37 0.37 99 1009.7
20260506150903 51 352 0.0 1.7 0.30 0.35 0.35 98 1009.5
20260506150003 51 324 0.0 5.2 0.30 0.35 0.35 97 1009.5
20260506145403 52 297 1.7 6.1 0.18 0.24 0.24 95 1009.7
20260506144503 53 324 2.6 7.8 0.02 0.08 0.08 92 1009.6
20260506143603 55 299 1.7 6.1 0.00 0.06 0.06 85 1009.1
20260506142703 56 315 3.5 7.8 0.00 0.06 0.06 82 1009.1
20260506141803 60 202 4.3 9.6 0.00 0.06 0.06 76 1009.0
20260506140903 60 192 2.6 9.6 0.00 0.06 0.06 74 1008.7
20260506140003 61 201 2.6 9.6 0.00 0.06 0.06 72 1008.8
20260506135403 62 206 2.6 9.6 0.00 0.06 0.06 74 1008.8
20260506134503 61 201 6.1 9.6 0.00 0.06 0.06 73 1008.8
20260506133603 62 211 5.2 11.3 0.00 0.06 0.06 76 1008.8
20260506132703 60 209 5.2 7.8 0.00 0.06 0.06 80 1009.0
20260506131803 59 212 2.6 7.0 0.00 0.06 0.06 81 1009.1
20260506130903 58 198 4.3 7.8 0.00 0.06 0.06 82 1009.0
20260506130004 57 208 4.3 9.6 0.00 0.06 0.06 82 1009.1
20260506125403 58 198 6.1 9.6 0.00 0.06 0.06 81 1009.0
20260506124503 58 214 4.3 9.6 0.00 0.06 0.06 83 1009.0
20260506123603 58 203 4.3 9.6 0.00 0.06 0.06 82 1009.0
20260506122703 59 207 4.3 9.6 0.00 0.06 0.06 81 1009.0
20260506121803 59 197 3.5 7.0 0.00 0.06 0.06 84 1009.0
20260506120903 58 203 3.5 9.6 0.00 0.06 0.06 82 1009.1
20260506120003 59 206 5.2 9.6 0.00 0.06 0.06 83 1009.1
20260506115403 58 199 6.1 11.3 0.00 0.06 0.06 83 1009.0
20260506114503 58 204 7.0 9.6 0.00 0.06 0.06 83 1009.1
20260506113603 58 205 3.5 9.6 0.00 0.06 0.06 84 1009.2
20260506112703 58 201 2.6 9.6 0.00 0.06 0.06 83 1009.3
20260506111803 57 204 4.3 9.6 0.00 0.06 0.06 83 1009.3
20260506110903 57 201 4.3 7.8 0.00 0.06 0.06 86 1009.3
20260506110003 57 186 3.5 9.6 0.00 0.06 0.06 87 1009.4
20260506105403 56 193 3.5 9.6 0.00 0.06 0.06 87 1009.4
20260506104503 56 200 3.5 9.6 0.00 0.06 0.06 87 1009.3
20260506103603 56 202 4.3 9.6 0.00 0.06 0.06 89 1009.4
20260506102703 56 190 7.0 9.6 0.00 0.07 0.06 89 1009.4
20260506101803 55 199 4.3 7.8 0.00 0.07 0.06 91 1009.3
20260506100903 55 196 3.5 6.1 0.00 0.07 0.06 90 1009.3
20260506100003 55 197 1.7 7.8 0.00 0.07 0.06 89 1009.3
20260506095403 54 189 4.3 7.8 0.00 0.07 0.06 90 1009.3
20260506094503 54 203 1.7 6.1 0.00 0.07 0.06 92 1009.3
20260506093603 54 212 1.7 7.8 0.00 0.07 0.06 92 1009.1
20260506092703 54 177 2.6 7.8 0.00 0.07 0.06 93 1009.1
20260506091803 54 190 0.9 6.1 0.00 0.07 0.06 93 1009.0
20260506090903 54 198 3.5 6.1 0.00 0.07 0.06 94 1008.9
20260506090003 53 205 0.0 3.5 0.00 0.07 0.06 94 1008.9
20260506085403 53 202 1.7 5.2 0.00 0.07 0.06 95 1008.9